TimeCST,TemperatureF,Dew PointF,Humidity,Sea Level PressureIn,VisibilityMPH,Wind Direction,Wind SpeedMPH,Gust SpeedMPH,PrecipitationIn,Events,Conditions,WindDirDegrees,DateUTC
12:55 AM,51.8,46.9,83,30.14,10.0,Calm,Calm,-,N/A,,Clear,0,2012-11-21 06:55:00
1:55 AM,49.8,46.4,88,30.14,10.0,Calm,Calm,-,N/A,,Clear,0,2012-11-21 07:55:00
2:23 AM,50.0,42.8,76,30.26,6.0,NNW,2.3,-,N/A,,Clear,340,2012-11-21 08:23:00
2:35 AM,51.8,42.8,71,30.26,6.0,Variable,3.5,-,N/A,,Clear,0,2012-11-21 08:35:00
2:55 AM,47.8,45.5,92,30.16,10.0,Variable,3.5,-,N/A,,Clear,0,2012-11-21 08:55:00
3:55 AM,47.7,45.5,92,30.17,10.0,Calm,Calm,-,N/A,,Clear,0,2012-11-21 09:55:00
4:29 AM,59.0,44.6,59,30.25,9.0,NNE,5.8,-,N/A,,Clear,30,2012-11-21 10:29:00
4:35 AM,59.0,44.6,59,30.25,10.0,Variable,3.5,-,N/A,,Clear,0,2012-11-21 10:35:00
4:55 AM,46.2,45.3,97,30.19,10.0,Calm,Calm,-,N/A,,Clear,0,2012-11-21 10:55:00
5:55 AM,45.7,45.5,99,30.21,10.0,Calm,Calm,-,N/A,,Clear,0,2012-11-21 11:55:00
6:55 AM,45.0,44.6,99,30.22,7.0,Calm,Calm,-,N/A,,Clear,0,2012-11-21 12:55:00
7:55 AM,48.0,46.2,93,30.24,8.0,Calm,Calm,-,N/A,,Clear,0,2012-11-21 13:55:00
8:55 AM,52.5,46.9,81,30.25,10.0,Variable,3.5,-,N/A,,Clear,0,2012-11-21 14:55:00
9:55 AM,56.3,47.1,71,30.26,10.0,NE,8.1,-,N/A,,Clear,40,2012-11-21 15:55:00
10:39 AM,59.0,44.6,59,30.25,9.0,North,4.6,-,N/A,,Clear,350,2012-11-21 16:39:00
10:55 AM,59.4,46.0,61,30.25,10.0,NE,10.4,-,N/A,,Clear,50,2012-11-21 16:55:00
11:55 AM,61.9,43.9,52,30.24,10.0,Variable,4.6,-,N/A,,Clear,0,2012-11-21 17:55:00
12:55 PM,62.4,42.6,48,30.22,10.0,Variable,4.6,-,N/A,,Partly Cloudy,0,2012-11-21 18:55:00
1:55 PM,63.3,41.2,44,30.20,10.0,Variable,3.5,-,N/A,,Clear,0,2012-11-21 19:55:00
2:55 PM,62.4,41.0,45,30.21,10.0,Variable,3.5,-,N/A,,Clear,0,2012-11-21 20:55:00
3:55 PM,61.2,41.7,49,30.21,10.0,Variable,3.5,-,N/A,,Clear,0,2012-11-21 21:55:00
4:55 PM,57.0,41.5,56,30.22,10.0,NNW,1.2,-,N/A,,Clear,340,2012-11-21 22:55:00
5:55 PM,50.9,41.2,69,30.23,10.0,North,1.2,-,N/A,,Clear,360,2012-11-21 23:55:00
6:55 PM,46.2,39.7,78,30.23,9.0,Calm,Calm,-,N/A,,Clear,0,2012-11-22 00:55:00
7:55 PM,46.2,39.6,78,30.23,8.0,Calm,Calm,-,N/A,,Clear,0,2012-11-22 01:55:00
8:55 PM,44.8,38.8,80,30.23,6.0,SSW,2.3,-,N/A,,Clear,210,2012-11-22 02:55:00
9:55 PM,43.0,38.7,85,30.22,6.0,SSW,1.2,-,N/A,,Clear,210,2012-11-22 03:55:00
10:55 PM,42.4,38.1,85,30.22,6.0,West,1.2,-,N/A,,Clear,260,2012-11-22 04:55:00
11:55 PM,38.7,35.8,89,30.22,3.0,North,1.2,-,N/A,,Clear,10,2012-11-22 05:55:00